{"data":{"norad_id":89029,"intl_designator":"","name":"UNKNOWN","alt_names":[],"object_type":"UNKNOWN","status":"UNKNOWN","operator":null,"country":null,"launch_date":null,"launch_site_code":null,"launch_vehicle":null,"mission":null,"orbit_class":"UNKNOWN","rcs_meters":null,"size_class":null,"mass_kg":null,"dimensions":null,"purposes":[],"wikipedia_slug":null,"has_3d_model":false,"image_url":null,"decayed_at":null,"tle_current":{"epoch":"2026-09-15T23:44:37.084704Z","epoch_age_seconds":404249,"freshness":"STALE","line1":"1 89029U          26258.98931811  .00003866  00000+0  33608-3 0  9996","line2":"2 89029  98.0303 170.6726 0022918 121.4674 238.8791 14.97406856692532","mean_motion":14.97406856,"eccentricity":0.0022918,"inclination_deg":98.0303,"raan_deg":170.6726,"arg_perigee_deg":121.4674,"mean_anomaly_deg":238.8791,"bstar":0.00033608,"rev_number":69253,"period_min":96.166248620408,"perigee_km":558.97710619116,"apogee_km":590.84710206484,"semimajor_km":6953.049104128,"source":"CELESTRAK","updated_at":"2026-09-20T09:00:32.481805Z"}}}